Tracking 18957 objects as of 22-Jan-2018
HD Live streaming from Space Station
objects crossing your sky now

ERS 2 DEB

Track ERS 2 DEB now!
10-day predictions


NORAD ID: 35393
Int'l Code: 1995-021G
Perigee: 758.8 km
Apogee: 764.5 km
Inclination: 98.2 °
Period: 99.9 minutes
Semi major axis: 7132 km
RCS: 0.0072 m2 (small)
Launch date: April 21, 1995
Source: European Space Agency (ESA)
Launch site: FRENCH GUIANA (FRGUI)

Note: This is SATELLITE DEBRIS
aabbcc
Your satellite tracking list
Your tracking list is empty




NASA's NSSDC Master Catalog

Two Line Element Set (TLE):
1 35393U 95021G   18022.45170015  .00000329  00000-0  11473-3 0  9999
2 35393  98.1715  15.1706 0004036 225.3000 292.0533 14.41202537759184
Source of the keplerian elements: AFSPC